Location: Poughquag
(41.6090°N, 73.6820°W)
Time: 14:53:57
(UTC-04:00)

Explorer 11/Cluster Stage 4 - Pass Details

Date: 03 June 2020
Orbit: 467 x 1259 km, 28.8° (Epoch: 05 July)

Event Time Altitude Azimuth Distance (km) Brightness Sun altitude
Rises 09:59:06 0° 257° (WSW) 3,814 9.7 49.0°
Reaches altitude 10° 10:02:33 10° 241° (WSW) 2,982 9.4 49.6°
Maximum altitude 10:07:36 20° 198° (SSW) 2,473 9.3 50.5°
Drops below altitude 10° 10:13:00 10° 157° (SSE) 3,204 10.2 51.5°
Sets 10:16:54 0° 141° (SE) 4,192 10.8 52.2°
